| time (UTC) | temp C | wind direction | speed KPH | gust KPH | rain 1hr cm | rain 24hr cm | rain mn cm | humidity % | barometer mb |
| 20260902013204 | 16 | 224 | 3.2 | 4.8 | 0.00 | 0.00 | 0.00 | 85 | 1019.8 |
| 20260902011704 | 16 | 230 | 0.0 | 0.0 | 0.00 | 0.00 | 0.00 | 84 | 1020.0 |
| 20260902010704 | 16 | 230 | 0.0 | 1.6 | 0.00 | 0.00 | 0.00 | 84 | 1019.9 |
| 20260902010206 | 16 | 230 | 0.0 | 1.6 | 0.00 | 0.00 | 0.00 | 84 | 1019.9 |
| 20260902004704 | 16 | 230 | 1.6 | 3.2 | 0.00 | 0.00 | 0.00 | 83 | 1020.0 |
| 20260902004203 | 16 | 230 | 1.6 | 3.2 | 0.00 | 0.00 | 0.00 | 83 | 1020.1 |
| 20260902003705 | 16 | 230 | 0.0 | 3.2 | 0.00 | 0.00 | 0.00 | 83 | 1019.9 |
| 20260902003204 | 16 | 230 | 0.0 | 1.6 | 0.00 | 0.00 | 0.00 | 83 | 1020.0 |
| 20260902001703 | 16 | 230 | 0.0 | 1.6 | 0.00 | 0.00 | 0.00 | 82 | 1019.9 |
| 20260902001203 | 16 | 230 | 0.0 | 1.6 | 0.00 | 0.00 | 0.00 | 82 | 1019.9 |
| 20260902000703 | 16 | 230 | 0.0 | 4.8 | 0.00 | 0.00 | 0.00 | 82 | 1020.0 |
| 20260902000204 | 16 | 227 | 1.6 | 4.8 | 0.00 | 0.00 | 0.00 | 82 | 1020.0 |
| 20260901234705 | 16 | 221 | 0.0 | 3.2 | 0.00 | 0.00 | 0.00 | 82 | 1020.0 |
| 20260901234204 | 16 | 221 | 1.6 | 3.2 | 0.00 | 0.00 | 0.00 | 82 | 1020.0 |
| 20260901233704 | 16 | 221 | 3.2 | 4.8 | 0.00 | 0.00 | 0.00 | 82 | 1020.0 |
| 20260901233203 | 16 | 221 | 0.0 | 0.0 | 0.00 | 0.00 | 0.00 | 82 | 1020.1 |
| 20260901230703 | 17 | 221 | 1.6 | 3.2 | 0.00 | 0.00 | 0.00 | 82 | 1020.1 |
| 20260901230204 | 17 | 214 | 1.6 | 3.2 | 0.00 | 0.00 | 0.00 | 82 | 1020.2 |
| 20260901224704 | 16 | 213 | 1.6 | 3.2 | 0.00 | 0.00 | 0.00 | 82 | 1020.1 |
| 20260901224204 | 16 | 213 | 3.2 | 4.8 | 0.00 | 0.00 | 0.00 | 81 | 1020.1 |
| 20260901223704 | 17 | 240 | 1.6 | 3.2 | 0.00 | 0.00 | 0.00 | 81 | 1020.2 |
| 20260901221703 | 17 | 240 | 1.6 | 3.2 | 0.00 | 0.00 | 0.00 | 80 | 1020.3 |
| 20260901221204 | 17 | 240 | 0.0 | 3.2 | 0.00 | 0.00 | 0.00 | 80 | 1020.2 |
| 20260901220204 | 17 | 225 | 0.0 | 3.2 | 0.00 | 0.00 | 0.00 | 79 | 1020.3 |
| 20260901214704 | 17 | 231 | 0.0 | 1.6 | 0.00 | 0.00 | 0.00 | 79 | 1020.3 |
| 20260901214204 | 17 | 231 | 0.0 | 3.2 | 0.00 | 0.00 | 0.00 | 78 | 1020.3 |
| 20260901213704 | 17 | 231 | 0.0 | 1.6 | 0.00 | 0.00 | 0.00 | 78 | 1020.4 |
| 20260901211204 | 17 | 196 | 1.6 | 4.8 | 0.00 | 0.00 | 0.00 | 77 | 1020.3 |
| 20260901210704 | 17 | 197 | 0.0 | 3.2 | 0.00 | 0.00 | 0.00 | 77 | 1020.3 |
| 20260901210203 | 17 | 197 | 0.0 | 4.8 | 0.00 | 0.00 | 0.00 | 77 | 1020.3 |
| 20260901204704 | 17 | 190 | 3.2 | 8.0 | 0.00 | 0.00 | 0.00 | 77 | 1020.3 |
| 20260901204203 | 17 | 194 | 1.6 | 3.2 | 0.00 | 0.00 | 0.00 | 76 | 1020.3 |
| 20260901203706 | 17 | 194 | 1.6 | 3.2 | 0.00 | 0.00 | 0.00 | 76 | 1020.2 |
| 20260901201703 | 17 | 170 | 1.6 | 8.0 | 0.00 | 0.00 | 0.00 | 76 | 1020.1 |
| 20260901201204 | 17 | 170 | 1.6 | 8.0 | 0.00 | 0.00 | 0.00 | 76 | 1020.1 |
| 20260901200704 | 17 | 170 | 1.6 | 3.2 | 0.00 | 0.00 | 0.00 | 76 | 1020.2 |
| 20260901200203 | 17 | 170 | 0.0 | 8.0 | 0.00 | 0.00 | 0.00 | 75 | 1020.1 |
| 20260901194704 | 17 | 170 | 3.2 | 8.0 | 0.00 | 0.00 | 0.00 | 74 | 1020.0 |
| 20260901194204 | 17 | 159 | 1.6 | 12.9 | 0.00 | 0.00 | 0.00 | 74 | 1019.9 |
| 20260901193705 | 18 | 183 | 3.2 | 12.9 | 0.00 | 0.00 | 0.00 | 74 | 1019.9 |
| 20260901193203 | 18 | 215 | 1.6 | 11.3 | 0.00 | 0.00 | 0.00 | 73 | 1019.9 |
| 20260901191704 | 18 | 173 | 3.2 | 11.3 | 0.00 | 0.00 | 0.00 | 72 | 1019.8 |
| 20260901191205 | 18 | 171 | 1.6 | 11.3 | 0.00 | 0.00 | 0.00 | 72 | 1019.9 |
| 20260901190706 | 18 | 183 | 4.8 | 12.9 | 0.00 | 0.00 | 0.00 | 72 | 1019.8 |
| 20260901190204 | 18 | 181 | 3.2 | 16.1 | 0.00 | 0.00 | 0.00 | 71 | 1019.8 |
| 20260901184704 | 18 | 246 | 3.2 | 9.7 | 0.00 | 0.00 | 0.00 | 70 | 1019.9 |
| 20260901184206 | 19 | 175 | 3.2 | 9.7 | 0.00 | 0.00 | 0.00 | 70 | 1019.8 |
| 20260901183704 | 19 | 192 | 3.2 | 8.0 | 0.00 | 0.00 | 0.00 | 70 | 1019.7 |
| 20260901183204 | 19 | 196 | 4.8 | 14.5 | 0.00 | 0.00 | 0.00 | 69 | 1019.6 |
| 20260901181705 | 20 | 187 | 8.0 | 14.5 | 0.00 | 0.00 | 0.00 | 69 | 1019.5 |
| 20260901181204 | 20 | 177 | 3.2 | 12.9 | 0.00 | 0.00 | 0.00 | 68 | 1019.6 |
| 20260901180704 | 20 | 186 | 9.7 | 20.9 | 0.00 | 0.00 | 0.00 | 68 | 1019.8 |
| 20260901180204 | 20 | 176 | 8.0 | 19.3 | 0.00 | 0.00 | 0.00 | 67 | 1019.8 |
| 20260901174704 | 20 | 176 | 8.0 | 22.5 | 0.00 | 0.00 | 0.00 | 65 | 1019.7 |
| 20260901173704 | 21 | 181 | 6.4 | 19.3 | 0.00 | 0.00 | 0.00 | 63 | 1019.6 |
| 20260901173204 | 21 | 190 | 8.0 | 19.3 | 0.00 | 0.00 | 0.00 | 62 | 1019.5 |
| 20260901171705 | 22 | 173 | 3.2 | 9.7 | 0.00 | 0.00 | 0.00 | 54 | 1019.5 |
| 20260901171204 | 22 | 253 | 3.2 | 12.9 | 0.00 | 0.00 | 0.00 | 52 | 1019.5 |
| 20260901170703 | 22 | 198 | 4.8 | 8.0 | 0.00 | 0.00 | 0.00 | 53 | 1019.4 |
| 20260901170205 | 22 | 285 | 3.2 | 14.5 | 0.00 | 0.00 | 0.00 | 53 | 1019.3 |
| 20260901164704 | 22 | 235 | 8.0 | 16.1 | 0.00 | 0.00 | 0.00 | 54 | 1019.4 |
| 20260901164204 | 22 | 287 | 8.0 | 16.1 | 0.00 | 0.00 | 0.00 | 53 | 1019.4 |
| 20260901163705 | 22 | 293 | 4.8 | 14.5 | 0.00 | 0.00 | 0.00 | 53 | 1019.3 |
| 20260901163204 | 22 | 290 | 3.2 | 16.1 | 0.00 | 0.00 | 0.00 | 53 | 1019.4 |
| 20260901161705 | 22 | 288 | 4.8 | 11.3 | 0.00 | 0.00 | 0.00 | 53 | 1019.4 |
| 20260901161204 | 22 | 274 | 9.7 | 19.3 | 0.00 | 0.00 | 0.00 | 53 | 1019.4 |
| 20260901160204 | 21 | 319 | 8.0 | 14.5 | 0.00 | 0.00 | 0.00 | 53 | 1019.5 |
| 20260901154705 | 21 | 301 | 4.8 | 16.1 | 0.00 | 0.00 | 0.00 | 53 | 1019.5 |
| 20260901154204 | 22 | 265 | 8.0 | 16.1 | 0.00 | 0.00 | 0.00 | 52 | 1019.5 |
| 20260901151703 | 22 | 296 | 4.8 | 14.5 | 0.00 | 0.00 | 0.00 | 50 | 1019.5 |
| 20260901151205 | 22 | 274 | 8.0 | 27.4 | 0.00 | 0.00 | 0.00 | 51 | 1019.7 |
| 20260901150703 | 22 | 300 | 6.4 | 11.3 | 0.00 | 0.00 | 0.00 | 51 | 1019.6 |
| 20260901150204 | 22 | 278 | 8.0 | 20.9 | 0.00 | 0.00 | 0.00 | 50 | 1019.5 |
| 20260901144703 | 22 | 287 | 4.8 | 16.1 | 0.00 | 0.00 | 0.00 | 50 | 1019.6 |
| 20260901144204 | 23 | 164 | 8.0 | 16.1 | 0.00 | 0.00 | 0.00 | 49 | 1019.6 |
| 20260901143704 | 23 | 191 | 8.0 | 20.9 | 0.00 | 0.00 | 0.00 | 48 | 1019.6 |
| 20260901143204 | 23 | 178 | 6.4 | 20.9 | 0.00 | 0.00 | 0.00 | 48 | 1019.6 |
| 20260901141204 | 23 | 224 | 4.8 | 11.3 | 0.00 | 0.00 | 0.00 | 50 | 1019.8 |
| 20260901140704 | 23 | 209 | 4.8 | 11.3 | 0.00 | 0.00 | 0.00 | 50 | 1019.9 |
| 20260901140204 | 23 | 194 | 3.2 | 14.5 | 0.00 | 0.00 | 0.00 | 50 | 1019.8 |
| 20260901133704 | 23 | 266 | 4.8 | 19.3 | 0.00 | 0.00 | 0.00 | 52 | 1019.8 |
| 20260901131703 | 23 | 246 | 4.8 | 20.9 | 0.00 | 0.00 | 0.00 | 52 | 1020.1 |
| 20260901131205 | 22 | 186 | 4.8 | 22.5 | 0.00 | 0.00 | 0.00 | 53 | 1020.1 |
| 20260901130704 | 22 | 225 | 4.8 | 11.3 | 0.00 | 0.00 | 0.00 | 54 | 1020.2 |
| 20260901130204 | 22 | 144 | 4.8 | 16.1 | 0.00 | 0.00 | 0.00 | 56 | 1020.2 |
| 20260901124704 | 21 | 259 | 3.2 | 11.3 | 0.00 | 0.00 | 0.00 | 59 | 1020.5 |
| 20260901124204 | 21 | 286 | 4.8 | 11.3 | 0.00 | 0.00 | 0.00 | 57 | 1020.5 |
| 20260901123204 | 21 | 267 | 9.7 | 22.5 | 0.00 | 0.00 | 0.00 | 55 | 1020.5 |
| 20260901121203 | 23 | 279 | 9.7 | 24.1 | 0.00 | 0.00 | 0.00 | 52 | 1020.7 |
| 20260901120704 | 23 | 287 | 3.2 | 11.3 | 0.00 | 0.00 | 0.00 | 54 | 1020.7 |
| 20260901120205 | 23 | 172 | 4.8 | 11.3 | 0.00 | 0.00 | 0.00 | 55 | 1020.6 |
| 20260901114204 | 22 | 194 | 4.8 | 14.5 | 0.00 | 0.00 | 0.00 | 59 | 1020.7 |
| 20260901113703 | 22 | 248 | 3.2 | 12.9 | 0.00 | 0.00 | 0.00 | 59 | 1020.6 |
| 20260901113204 | 21 | 185 | 9.7 | 22.5 | 0.00 | 0.00 | 0.00 | 62 | 1020.6 |
| 20260901111704 | 20 | 179 | 8.0 | 20.9 | 0.00 | 0.00 | 0.00 | 64 | 1020.8 |
| 20260901111204 | 20 | 180 | 6.4 | 14.5 | 0.00 | 0.00 | 0.00 | 65 | 1020.8 |
| 20260901110205 | 20 | 284 | 3.2 | 14.5 | 0.00 | 0.00 | 0.00 | 66 | 1020.9 |
| 20260901104704 | 20 | 188 | 3.2 | 16.1 | 0.00 | 0.00 | 0.00 | 65 | 1021.0 |
| 20260901104205 | 20 | 180 | 9.7 | 19.3 | 0.00 | 0.00 | 0.00 | 65 | 1021.0 |
| 20260901103704 | 20 | 184 | 4.8 | 12.9 | 0.00 | 0.00 | 0.00 | 65 | 1021.0 |
| 20260901103204 | 20 | 186 | 3.2 | 12.9 | 0.00 | 0.00 | 0.00 | 65 | 1021.0 |
| 20260901101203 | 20 | 291 | 9.7 | 16.1 | 0.00 | 0.00 | 0.00 | 61 | 1021.1 |
| 20260901100204 | 20 | 193 | 4.8 | 20.9 | 0.00 | 0.03 | 0.00 | 62 | 1021.2 |
| 20260901094704 | 19 | 175 | 4.8 | 12.9 | 0.00 | 0.03 | 0.00 | 65 | 1021.2 |
| 20260901094204 | 18 | 178 | 4.8 | 11.3 | 0.00 | 0.03 | 0.00 | 66 | 1021.3 |
| 20260901093705 | 18 | 181 | 8.0 | 14.5 | 0.00 | 0.03 | 0.00 | 66 | 1021.4 |
| 20260901093204 | 18 | 179 | 6.4 | 14.5 | 0.00 | 0.03 | 0.00 | 67 | 1021.4 |
| 20260901091705 | 17 | 220 | 1.6 | 4.8 | 0.00 | 0.03 | 0.00 | 72 | 1021.4 |
| 20260901091204 | 17 | 177 | 3.2 | 9.7 | 0.00 | 0.03 | 0.00 | 73 | 1021.4 |
| 20260901090704 | 17 | 271 | 3.2 | 9.7 | 0.00 | 0.03 | 0.00 | 73 | 1021.4 |
| 20260901090203 | 17 | 254 | 0.0 | 8.0 | 0.00 | 0.03 | 0.00 | 74 | 1021.4 |
| 20260901083704 | 16 | 207 | 1.6 | 4.8 | 0.00 | 0.03 | 0.00 | 81 | 1021.4 |
| 20260901081704 | 14 | 184 | 3.2 | 9.7 | 0.00 | 0.03 | 0.00 | 88 | 1021.2 |
| 20260901081204 | 13 | 213 | 0.0 | 0.0 | 0.00 | 0.03 | 0.00 | 89 | 1021.1 |
| 20260901074703 | 12 | 261 | 0.0 | 0.0 | 0.00 | 0.03 | 0.00 | 92 | 1021.1 |
| 20260901074203 | 12 | 261 | 0.0 | 0.0 | 0.00 | 0.03 | 0.00 | 93 | 1021.1 |
| 20260901073704 | 12 | 261 | 0.0 | 0.0 | 0.00 | 0.03 | 0.00 | 93 | 1021.0 |
| 20260901071704 | 12 | 288 | 0.0 | 0.0 | 0.00 | 0.03 | 0.00 | 94 | 1021.0 |
| 20260901071204 | 12 | 292 | 0.0 | 0.0 | 0.00 | 0.03 | 0.00 | 94 | 1020.9 |
| 20260901064704 | 11 | 296 | 0.0 | 0.0 | 0.00 | 0.03 | 0.00 | 94 | 1020.8 |
| 20260901064205 | 11 | 296 | 0.0 | 0.0 | 0.00 | 0.03 | 0.00 | 94 | 1020.9 |
| 20260901063704 | 11 | 296 | 0.0 | 0.0 | 0.00 | 0.03 | 0.00 | 94 | 1020.8 |
| 20260901063204 | 11 | 296 | 0.0 | 0.0 | 0.00 | 0.03 | 0.00 | 93 | 1020.8 |
| 20260901061703 | 11 | 296 | 0.0 | 0.0 | 0.00 | 0.03 | 0.00 | 93 | 1020.6 |
| 20260901061204 | 10 | 296 | 0.0 | 0.0 | 0.00 | 0.03 | 0.00 | 93 | 1020.6 |
| 20260901060706 | 10 | 296 | 0.0 | 0.0 | 0.00 | 0.03 | 0.00 | 93 | 1020.5 |
| 20260901060204 | 10 | 296 | 0.0 | 0.0 | 0.00 | 0.03 | 0.00 | 93 | 1020.4 |
| 20260901054704 | 10 | 297 | 0.0 | 0.0 | 0.00 | 0.03 | 0.00 | 93 | 1020.2 |
| 20260901054203 | 10 | 298 | 0.0 | 0.0 | 0.00 | 0.03 | 0.00 | 92 | 1020.2 |
| 20260901053704 | 10 | 298 | 0.0 | 0.0 | 0.00 | 0.03 | 0.00 | 92 | 1020.1 |
| 20260901053205 | 10 | 298 | 0.0 | 0.0 | 0.00 | 0.03 | 0.00 | 92 | 1020.2 |
| 20260901051703 | 10 | 298 | 0.0 | 0.0 | 0.00 | 0.03 | 0.00 | 92 | 1020.1 |
| 20260901051204 | 10 | 298 | 0.0 | 0.0 | 0.00 | 0.03 | 0.00 | 92 | 1020.1 |
| 20260901050704 | 10 | 298 | 0.0 | 0.0 | 0.00 | 0.03 | 0.00 | 92 | 1020.0 |
| 20260901050204 | 10 | 298 | 0.0 | 0.0 | 0.00 | 0.03 | 0.00 | 91 | 1019.9 |
| 20260901044204 | 10 | 298 | 0.0 | 0.0 | 0.00 | 0.03 | 0.00 | 91 | 1019.9 |
| 20260901043704 | 10 | 298 | 0.0 | 0.0 | 0.00 | 0.03 | 0.00 | 91 | 1019.9 |
| 20260901043204 | 10 | 298 | 0.0 | 0.0 | 0.00 | 0.03 | 0.00 | 90 | 1019.9 |
| 20260901041704 | 10 | 298 | 0.0 | 0.0 | 0.00 | 0.03 | 0.00 | 90 | 1019.8 |
| 20260901041204 | 10 | 298 | 0.0 | 0.0 | 0.00 | 0.03 | 0.00 | 90 | 1019.7 |
| 20260901040203 | 10 | 298 | 0.0 | 0.0 | 0.00 | 0.03 | 0.00 | 89 | 1019.7 |
| 20260901034704 | 10 | 298 | 0.0 | 0.0 | 0.00 | 0.03 | 0.00 | 90 | 1019.7 |
| 20260901034203 | 11 | 298 | 0.0 | 0.0 | 0.00 | 0.03 | 0.00 | 90 | 1019.7 |
| 20260901033204 | 11 | 298 | 0.0 | 0.0 | 0.00 | 0.03 | 0.00 | 89 | 1019.7 |
| 20260901031704 | 11 | 298 | 0.0 | 0.0 | 0.00 | 0.03 | 0.00 | 89 | 1019.6 |
| 20260901031204 | 11 | 298 | 0.0 | 0.0 | 0.00 | 0.03 | 0.00 | 89 | 1019.7 |
| 20260901030703 | 11 | 298 | 0.0 | 0.0 | 0.00 | 0.03 | 0.00 | 88 | 1019.7 |
| 20260901030204 | 11 | 298 | 0.0 | 0.0 | 0.00 | 0.03 | 0.00 | 88 | 1019.7 |
| 20260901024703 | 11 | 298 | 0.0 | 0.0 | 0.00 | 0.03 | 0.00 | 88 | 1019.7 |
| 20260901024204 | 11 | 298 | 0.0 | 0.0 | 0.00 | 0.03 | 0.00 | 88 | 1019.7 |
| 20260901023704 | 11 | 298 | 0.0 | 0.0 | 0.00 | 0.03 | 0.00 | 88 | 1019.6 |
| 20260901023204 | 12 | 298 | 0.0 | 0.0 | 0.00 | 0.03 | 0.00 | 88 | 1019.6 |
| 20260901021706 | 12 | 298 | 0.0 | 0.0 | 0.00 | 0.03 | 0.00 | 87 | 1019.8 |
| 20260901021205 | 12 | 298 | 0.0 | 0.0 | 0.00 | 0.03 | 0.00 | 87 | 1019.7 |
| 20260901020704 | 12 | 298 | 0.0 | 0.0 | 0.00 | 0.03 | 0.00 | 87 | 1019.8 |
| 20260901014704 | 12 | 298 | 0.0 | 0.0 | 0.00 | 0.03 | 0.00 | 86 | 1019.7 |
| 20260901013704 | 12 | 298 | 0.0 | 0.0 | 0.00 | 0.03 | 0.00 | 86 | 1019.7 |